{"data":{"norad_id":58227,"intl_designator":"2023-170X","name":"STARLINK-30874","alt_names":[],"object_type":"PAYLOAD","status":"ACTIVE","operator":null,"country":"US","launch_date":"2023-11-03","launch_site_code":"AFETR","launch_vehicle":null,"mission":null,"orbit_class":"UNKNOWN","rcs_meters":null,"size_class":null,"mass_kg":null,"dimensions":null,"purposes":["comms"],"wikipedia_slug":null,"has_3d_model":false,"image_url":null,"decayed_at":null,"tle_current":{"epoch":"2026-09-20T10:45:50.433696Z","epoch_age_seconds":148136,"freshness":"FRESH","line1":"1 58227U 23170X   26263.44850039  .00001310  00000+0  57144-4 0  9998","line2":"2 58227  43.0006 174.4597 0001604 261.9024  98.1646 15.27573738160088","mean_motion":15.27573738,"eccentricity":0.0001604,"inclination_deg":43.0006,"raan_deg":174.4597,"arg_perigee_deg":261.9024,"mean_anomaly_deg":98.1646,"bstar":5.7144e-5,"rev_number":16008,"period_min":94.267135142382,"perigee_km":481.96730952703,"apogee_km":484.16838404187,"semimajor_km":6861.2048467844,"source":"CELESTRAK","updated_at":"2026-09-21T09:00:33.835495Z"}}}